Flag for Lesotho Weather past 2 weeks in Maseru, Lesotho

Now
36 °F

Sunny.


Feels Like: 36 °F
Forecast: 33 / 72 °F
Wind: No wind

Location: Bloemfontein Airport

Current Time: May 30, 2015 at 7:39:34 AM

Latest Report: May 30, 2015 at 7:00 AM


Visibility: 10 mi

Pressure: 30.21 "Hg

Humidity: 75%

Dew point: 28 °F

Location of MaseruLocation

Historic Weather in Maseru — Graph

°F

Maseru temperature yesterday

Maximum temperature yesterday: 77 °F (at 2:00 PM)
Minimum temperature yesterday: 36 °F (at 7:00 AM)
Average temperature yesterday: 55 °F

Past Weeks' High & Low Weather Summary

 TemperatureHumidityPressure
High79 °F (May 18, 2:00 PM)87% (May 24, 4:00 AM)30.48 "Hg (May 24, 4:00 AM)
Low36 °F (May 27, 7:00 AM)10% (May 15, 2:00 PM)30.12 "Hg (May 15, 3:00 PM)
Average56 °F46%30.27 "Hg
* Reported May 15 6:00 AM — May 30 6:00 AM, Maseru, Weather by CustomWeather, © 2015

Note: Actual official high and low records may vary slightly from our data, if they occured in-between our weather recording intervals... More about our weather records

Advertising

Maseru weather history for previous 24 hours

 ConditionsComfort  
Time TempWeatherWind HumidityBarometerVisibility
6:00 AM
Sat, May 30
36 °FSunny.2 mph75%30.18 "Hg10 mi
5:00 AM37 °FClear.2 mph70%30.18 "Hg10 mi
4:00 AM37 °FChilly.2 mph70%30.18 "HgN/A
3:00 AM39 °FChilly.2 mph65%30.18 "HgN/A
2:00 AM39 °FChilly.No wind65%30.21 "HgN/A
1:00 AM43 °FQuite cool.1 mph57%30.18 "HgN/A
12:00 AM43 °FQuite cool.2 mph57%30.18 "Hg6 mi
11:00 PM
Fri, May 29
43 °FQuite cool.No wind57%30.21 "HgN/A
10:00 PM46 °FCool.1 mph50%30.18 "HgN/A
9:00 PM50 °FCool.3 mph40%30.18 "HgN/A
8:00 PM52 °FClear.No wind38%30.21 "Hg10 mi
7:00 PM64 °FClear.8 mph28%30.18 "Hg10 mi
6:00 PM68 °FClear.6 mph21%30.18 "Hg10 mi
5:00 PM73 °FClear.5 mph15%30.18 "Hg10 mi
4:00 PM77 °FPassing clouds.7 mph15%30.15 "HgN/A
3:00 PM77 °FPassing clouds.12 mph17%30.15 "HgN/A
2:00 PM77 °FSunny.6 mph13%30.18 "Hg10 mi
1:00 PM75 °FPassing clouds.9 mph19%30.18 "HgN/A
12:00 PM73 °FPassing clouds.8 mph20%30.21 "HgN/A
11:00 AM68 °FSunny.3 mph24%30.27 "Hg10 mi
10:00 AM59 °FSunny.2 mph36%30.27 "Hg10 mi
9:00 AM52 °FSunny.2 mph47%30.27 "Hg10 mi
8:03 AM46 °FSunny.No wind57%30.24 "Hg10 mi
7:00 AM36 °FSunny.1 mph81%30.24 "Hg10 mi
Weather by CustomWeather, © 2015

See weather overviewHow to use our weather pages